TimeEDT,TemperatureF,Dew PointF,Humidity,Sea Level PressureIn,VisibilityMPH,Wind Direction,Wind SpeedMPH,Gust SpeedMPH,PrecipitationIn,Events,Conditions,WindDirDegrees,DateUTC
12:15 AM,51.8,41.0,67,29.58,10.0,SW,23.0,29.9,N/A,,Mostly Cloudy,230,2011-10-16 04:15:00
12:35 AM,50.0,41.0,71,29.57,10.0,SW,18.4,25.3,N/A,,Partly Cloudy,220,2011-10-16 04:35:00
12:55 AM,50.0,42.8,76,29.57,10.0,SW,16.1,21.9,N/A,,Clear,220,2011-10-16 04:55:00
1:15 AM,51.8,41.0,67,29.57,10.0,SW,17.3,25.3,N/A,,Partly Cloudy,220,2011-10-16 05:15:00
1:35 AM,51.8,39.2,62,29.58,10.0,SW,19.6,24.2,N/A,,Partly Cloudy,230,2011-10-16 05:35:00
1:55 AM,51.8,39.2,62,29.58,10.0,SW,17.3,32.2,N/A,,Partly Cloudy,220,2011-10-16 05:55:00
2:15 AM,51.8,37.4,58,29.58,10.0,SW,19.6,27.6,N/A,,Clear,230,2011-10-16 06:15:00
2:35 AM,51.8,37.4,58,29.59,10.0,SW,15.0,21.9,N/A,,Clear,220,2011-10-16 06:35:00
2:55 AM,51.8,37.4,58,29.59,10.0,SW,19.6,28.8,N/A,,Partly Cloudy,220,2011-10-16 06:55:00
3:15 AM,51.8,37.4,58,29.59,10.0,SW,15.0,25.3,N/A,,Scattered Clouds,220,2011-10-16 07:15:00
3:35 AM,51.8,37.4,58,29.59,10.0,SW,18.4,23.0,N/A,,Mostly Cloudy,230,2011-10-16 07:35:00
3:55 AM,51.8,37.4,58,29.59,10.0,SW,19.6,25.3,N/A,,Overcast,220,2011-10-16 07:55:00
4:15 AM,51.8,37.4,58,29.59,10.0,SW,20.7,25.3,N/A,,Overcast,230,2011-10-16 08:15:00
4:55 AM,51.8,37.4,58,29.61,10.0,SW,13.8,18.4,N/A,,Overcast,220,2011-10-16 08:55:00
5:15 AM,51.8,37.4,58,29.61,10.0,SW,16.1,20.7,N/A,,Overcast,220,2011-10-16 09:15:00
5:35 AM,51.8,37.4,58,29.62,10.0,WSW,18.4,25.3,N/A,,Overcast,250,2011-10-16 09:35:00
5:55 AM,51.8,37.4,58,29.62,10.0,SW,12.7,23.0,N/A,,Mostly Cloudy,230,2011-10-16 09:55:00
6:15 AM,51.8,37.4,58,29.64,10.0,WSW,11.5,-,N/A,,Scattered Clouds,240,2011-10-16 10:15:00
6:35 AM,51.8,37.4,58,29.64,10.0,WSW,13.8,19.6,N/A,,Mostly Cloudy,240,2011-10-16 10:35:00
6:55 AM,51.8,37.4,58,29.64,10.0,WSW,13.8,20.7,N/A,,Mostly Cloudy,250,2011-10-16 10:55:00
7:15 AM,51.8,37.4,58,29.65,10.0,West,12.7,18.4,N/A,,Overcast,260,2011-10-16 11:15:00
7:35 AM,51.8,37.4,58,29.65,10.0,WSW,13.8,-,N/A,,Mostly Cloudy,240,2011-10-16 11:35:00
7:55 AM,51.8,37.4,58,29.66,10.0,WSW,11.5,-,N/A,,Mostly Cloudy,250,2011-10-16 11:55:00
8:15 AM,51.8,37.4,58,29.66,10.0,WSW,9.2,-,N/A,,Overcast,250,2011-10-16 12:15:00
8:35 AM,51.8,37.4,58,29.67,10.0,WSW,12.7,-,N/A,,Overcast,240,2011-10-16 12:35:00
8:55 AM,51.8,37.4,58,29.68,10.0,WSW,12.7,20.7,N/A,,Overcast,250,2011-10-16 12:55:00
9:15 AM,51.8,37.4,58,29.69,10.0,West,9.2,-,N/A,,Overcast,260,2011-10-16 13:15:00
9:35 AM,51.8,37.4,58,29.70,10.0,WSW,6.9,-,N/A,,Mostly Cloudy,250,2011-10-16 13:35:00
9:55 AM,53.6,39.2,58,29.70,10.0,WSW,11.5,-,N/A,,Mostly Cloudy,250,2011-10-16 13:55:00
10:15 AM,53.6,37.4,54,29.70,10.0,West,8.1,-,N/A,,Overcast,260,2011-10-16 14:15:00
10:35 AM,53.6,37.4,54,29.69,10.0,SW,16.1,20.7,N/A,,Overcast,230,2011-10-16 14:35:00
10:55 AM,55.4,35.6,47,29.69,10.0,WSW,19.6,25.3,N/A,,Overcast,240,2011-10-16 14:55:00
11:15 AM,55.4,35.6,47,29.70,10.0,WSW,13.8,21.9,N/A,,Overcast,240,2011-10-16 15:15:00
11:35 AM,55.4,35.6,47,29.70,10.0,WSW,13.8,24.2,N/A,,Overcast,250,2011-10-16 15:35:00
11:55 AM,55.4,35.6,47,29.70,10.0,WSW,10.4,27.6,N/A,,Overcast,250,2011-10-16 15:55:00
12:15 PM,55.4,35.6,47,29.70,10.0,WSW,19.6,27.6,N/A,,Overcast,240,2011-10-16 16:15:00
12:35 PM,55.4,35.6,47,29.70,10.0,WSW,17.3,29.9,N/A,,Overcast,250,2011-10-16 16:35:00
12:55 PM,55.4,35.6,47,29.69,10.0,WSW,11.5,17.3,N/A,,Overcast,250,2011-10-16 16:55:00
1:15 PM,55.4,35.6,47,29.68,10.0,WSW,18.4,26.5,N/A,,Overcast,250,2011-10-16 17:15:00
1:35 PM,55.4,35.6,47,29.69,10.0,West,15.0,23.0,N/A,,Overcast,260,2011-10-16 17:35:00
1:55 PM,55.4,35.6,47,29.68,10.0,WSW,20.7,26.5,N/A,,Overcast,250,2011-10-16 17:55:00
2:15 PM,55.4,35.6,47,29.68,10.0,WSW,11.5,23.0,N/A,,Mostly Cloudy,250,2011-10-16 18:15:00
2:35 PM,55.4,35.6,47,29.68,10.0,WSW,5.8,-,N/A,,Overcast,250,2011-10-16 18:35:00
2:55 PM,57.2,37.4,48,29.67,10.0,WSW,18.4,23.0,N/A,,Overcast,240,2011-10-16 18:55:00
3:15 PM,57.2,35.6,44,29.68,10.0,WSW,15.0,21.9,N/A,,Overcast,250,2011-10-16 19:15:00
3:35 PM,57.2,35.6,44,29.68,10.0,West,11.5,17.3,N/A,,Overcast,260,2011-10-16 19:35:00
3:55 PM,59.0,37.4,45,29.66,10.0,WSW,19.6,25.3,N/A,,Mostly Cloudy,250,2011-10-16 19:55:00
4:15 PM,57.2,33.8,41,29.65,10.0,WSW,13.8,-,N/A,,Mostly Cloudy,240,2011-10-16 20:15:00
4:35 PM,57.2,35.6,44,29.65,10.0,WSW,12.7,-,N/A,,Overcast,240,2011-10-16 20:35:00
4:55 PM,57.2,33.8,41,29.64,10.0,SW,12.7,18.4,N/A,,Overcast,220,2011-10-16 20:55:00
5:15 PM,57.2,33.8,41,29.64,10.0,SW,11.5,-,N/A,,Overcast,220,2011-10-16 21:15:00
5:35 PM,57.2,33.8,41,29.64,10.0,SW,12.7,18.4,N/A,,Overcast,220,2011-10-16 21:35:00
5:55 PM,55.4,35.6,47,29.64,10.0,WSW,10.4,-,N/A,,Overcast,240,2011-10-16 21:55:00
6:15 PM,55.4,35.6,47,29.63,10.0,Calm,Calm,-,N/A,,Overcast,0,2011-10-16 22:15:00
6:35 PM,53.6,37.4,54,29.64,10.0,South,3.5,-,N/A,,Scattered Clouds,170,2011-10-16 22:35:00
6:55 PM,50.0,39.2,66,29.64,10.0,Calm,Calm,-,N/A,,Partly Cloudy,0,2011-10-16 22:55:00
7:15 PM,50.0,39.2,66,29.65,10.0,Calm,Calm,-,N/A,,Mostly Cloudy,0,2011-10-16 23:15:00
7:35 PM,50.0,39.2,66,29.64,10.0,Calm,Calm,-,N/A,,Mostly Cloudy,0,2011-10-16 23:35:00
7:55 PM,48.2,39.2,71,29.63,10.0,Calm,Calm,-,N/A,,Mostly Cloudy,0,2011-10-16 23:55:00
8:15 PM,50.0,39.2,66,29.63,10.0,SSW,9.2,-,N/A,,Mostly Cloudy,200,2011-10-17 00:15:00
8:35 PM,53.6,37.4,54,29.63,10.0,SSW,8.1,-,N/A,,Overcast,210,2011-10-17 00:35:00
8:55 PM,53.6,39.2,58,29.63,10.0,SW,5.8,-,N/A,,Overcast,230,2011-10-17 00:55:00
9:15 PM,53.6,39.2,58,29.63,10.0,SSW,10.4,-,N/A,,Overcast,210,2011-10-17 01:15:00
9:35 PM,55.4,39.2,54,29.64,10.0,SW,10.4,-,N/A,,Overcast,220,2011-10-17 01:35:00
9:55 PM,55.4,39.2,54,29.64,10.0,SSW,9.2,-,N/A,,Overcast,210,2011-10-17 01:55:00
10:15 PM,53.6,39.2,58,29.64,10.0,SSW,5.8,-,N/A,,Overcast,200,2011-10-17 02:15:00
10:35 PM,53.6,39.2,58,29.62,10.0,SSW,3.5,-,N/A,,Overcast,210,2011-10-17 02:35:00
10:55 PM,53.6,39.2,58,29.62,10.0,South,4.6,-,N/A,,Overcast,180,2011-10-17 02:55:00
11:15 PM,53.6,41.0,62,29.62,10.0,South,8.1,-,N/A,,Overcast,170,2011-10-17 03:15:00
11:35 PM,53.6,41.0,62,29.60,10.0,South,5.8,-,N/A,,Overcast,180,2011-10-17 03:35:00
11:55 PM,53.6,42.8,67,29.59,10.0,South,6.9,-,N/A,,Overcast,180,2011-10-17 03:55:00